Wind_Speed
16 13 16 21 19 24 34 39 41 41 42 41 40 40 38 38 38 37 37 35 33 33 33 32 30 29 27 26 25 23 22 23 20 15 11 11 9 13 16 15 14 12 10 9 10 10 8 11 10 10 7 7 6 4 7 6 2 3 3 3 1 3 3 5 6 6 3 2 4 4 5 9 5 2 2 2 5 4 2 3 3 3 3 2 4 3 20 24
17 15 14 19 21 20 27 37 41 42 43 42 42 41 40 39 39 38 38 36 34 34 33 31 29 28 26 26 25 23 22 22 17 13 15 16 13 14 14 13 13 12 11 9 10 13 9 7 11 13 7 3 3 4 4 3 3 3 3 2 3 4 4 5 6 5 3 2 4 5 4 6 7 6 4 2 1 2 4 4 3 3 5 2 2 12 24 26
17 17 15 17 20 19 22 31 41 44 43 43 42 42 42 40 40 39 38 38 35 35 34 31 30 27 26 25 24 24 21 15 10 10 18 18 15 16 14 12 13 11 10 9 9 13 14 13 16 12 4 3 2 3 2 2 3 1 3 0 4 4 4 4 4 6 5 2 4 5 3 3 4 5 4 4 4 3 5 6 1 5 6 1 5 16 24 25
16 16 17 16 15 18 19 23 35 44 43 43 43 41 42 41 40 40 38 38 36 35 35 32 31 28 27 26 24 25 17 7 4 11 20 19 17 18 16 14 13 9 8 10 12 15 20 20 16 9 3 3 3 3 2 2 1 1 3 3 5 1 3 4 4 6 5 2 4 3 4 3 4 3 3 7 6 3 6 8 9 10 9 7 7 14 21 24
17 15 16 18 15 15 19 18 24 41 45 41 43 42 42 42 40 40 38 38 37 36 36 33 32 29 28 26 25 25 14 3 5 13 21 20 19 19 17 15 13 9 9 13 15 18 21 17 12 6 3 3 2 2 2 3 2 0 2 4 5 1 2 5 2 4 4 1 3 5 5 5 3 1 4 10 8 6 7 9 12 10 10 13 13 16 19 20
17 16 15 16 16 15 18 18 16 34 47 42 42 42 41 42 40 40 39 38 37 35 36 34 32 30 28 27 27 25 13 3 4 14 23 23 21 20 17 15 13 12 10 14 18 17 15 11 7 4 2 3 1 0 2 5 2 0 3 2 4 2 3 5 3 3 2 4 5 6 4 4 6 2 3 9 9 5 2 6 9 8 10 15 17 17 16 16
15 17 17 16 17 16 18 20 15 24 45 45 43 43 41 42 41 40 39 38 37 36 35 34 32 31 29 28 26 18 9 4 2 12 23 24 23 21 18 16 17 15 12 16 18 11 9 7 5 4 4 3 1 1 1 4 2 1 3 4 4 1 4 5 4 5 3 6 6 3 1 4 8 4 1 6 10 2 4 4 6 10 12 14 14 15 16 19
15 18 21 19 17 16 18 22 17 17 38 47 44 44 43 42 42 41 40 39 36 36 35 33 33 32 31 28 18 8 6 6 3 10 23 26 25 23 20 20 19 16 16 18 17 11 8 7 5 4 3 2 3 3 1 2 0 1 3 4 5 4 5 6 5 4 4 6 3 3 3 3 5 3 2 8 11 4 4 1 6 10 12 11 11 13 15 18
16 18 21 19 16 16 16 20 21 17 28 44 45 44 43 43 44 43 41 40 37 37 35 35 35 33 31 22 10 5 8 9 4 9 24 29 27 27 23 23 23 19 18 19 19 17 9 4 5 4 3 3 3 3 1 2 2 1 3 4 6 7 7 6 4 2 3 3 3 5 3 1 0 2 3 9 8 3 3 4 6 8 10 10 10 12 13 14
15 17 20 18 16 16 15 18 21 16 19 38 46 44 45 44 44 44 42 41 38 37 36 36 35 33 27 15 7 5 9 11 6 11 24 28 28 28 26 25 25 21 18 17 20 19 9 7 8 6 6 3 3 3 1 3 1 1 3 6 6 7 7 2 3 3 1 1 4 7 2 2 2 1 5 6 2 4 6 4 4 7 9 11 10 10 14 14
13 15 19 20 17 16 16 17 20 19 19 31 44 44 45 45 44 45 44 42 40 39 37 36 35 32 21 11 8 6 7 12 9 14 25 27 28 29 28 28 26 22 19 15 16 18 13 15 15 8 4 3 4 3 2 2 3 4 3 5 7 6 5 3 4 5 2 1 4 7 2 3 2 1 7 5 2 2 6 5 4 7 8 9 10 9 11 14
12 13 17 21 20 17 17 17 18 21 19 23 39 47 45 45 46 45 44 43 40 39 38 36 35 29 17 7 7 6 6 11 12 18 25 26 28 28 25 27 23 19 20 15 12 14 16 22 20 7 3 6 6 2 3 3 1 4 2 4 8 8 6 6 4 4 2 2 5 6 2 3 2 6 8 3 0 1 5 6 5 7 7 6 8 7 8 13
11 12 14 19 21 20 20 19 17 18 18 18 27 43 49 47 47 46 45 44 41 40 39 36 34 28 15 4 5 7 8 12 16 20 25 26 26 24 19 21 20 15 19 20 15 15 20 26 20 6 4 7 4 2 4 3 1 3 2 2 5 7 6 6 1 1 3 3 4 4 2 5 7 12 6 1 4 6 5 5 5 6 6 5 6 6 7 10
11 11 12 16 19 20 20 19 17 15 17 15 16 32 52 51 48 48 45 44 42 39 38 35 34 25 12 3 2 8 10 13 20 23 26 27 23 20 14 15 16 11 13 19 18 18 23 24 17 9 3 3 3 4 4 3 1 1 1 1 2 2 5 7 2 4 5 2 1 4 3 6 8 11 5 3 5 7 7 7 6 6 5 5 5 6 7 9
11 12 12 14 16 17 18 18 17 15 15 15 13 23 48 54 49 49 46 45 43 39 38 35 30 19 6 2 3 8 12 14 21 25 27 29 24 16 11 12 11 9 11 15 18 21 23 19 12 7 2 1 3 5 3 2 2 2 2 2 2 2 5 8 3 4 5 1 1 5 3 6 8 9 4 3 5 7 8 7 7 7 6 7 6 6 7 8
10 12 13 14 14 15 18 17 17 17 15 17 17 19 36 54 50 48 48 44 41 41 37 28 22 14 4 3 6 9 11 12 19 24 25 27 24 15 13 15 11 11 12 13 19 21 16 11 5 3 3 2 4 5 3 0 0 1 2 2 1 2 3 5 3 2 2 2 1 1 3 4 5 5 5 1 5 6 7 8 7 7 7 7 6 7 7 7
9 12 14 14 14 14 18 18 17 19 15 16 20 18 23 46 50 46 46 43 41 41 34 23 20 12 2 4 8 9 9 11 18 23 23 22 20 20 19 14 11 14 14 12 17 14 6 3 1 2 3 2 4 5 3 4 4 1 1 1 2 3 2 3 3 3 2 4 2 3 4 6 6 4 4 2 5 5 7 9 7 6 7 6 6 6 6 7
9 11 13 14 15 15 16 19 18 19 17 17 20 19 19 36 52 46 40 39 33 29 21 16 19 10 5 8 9 10 13 16 21 23 22 19 20 23 19 11 10 15 14 8 8 4 2 2 1 2 2 2 4 5 5 4 4 4 2 1 2 3 4 4 4 3 1 4 4 5 5 10 11 9 5 1 4 6 8 7 5 6 7 6 6 6 7 8
10 11 13 14 16 16 16 18 18 18 20 19 21 22 21 28 42 37 36 36 22 15 10 12 16 7 4 12 10 13 21 23 23 21 20 21 22 21 18 15 12 12 10 5 3 2 2 3 1 3 4 4 6 7 7 5 6 6 4 3 2 4 4 5 4 4 1 3 5 7 7 10 11 12 6 2 3 6 7 7 6 7 6 6 6 6 8 8
11 11 12 14 15 16 16 18 18 19 21 21 21 17 15 18 19 11 18 23 16 9 6 14 18 4 6 12 14 19 22 19 16 15 19 23 23 19 13 12 8 5 7 7 5 3 3 4 5 5 6 8 9 7 6 5 6 6 4 2 3 3 4 4 3 5 2 3 5 6 7 10 10 12 7 1 1 3 6 8 8 8 6 6 7 8 10 10
11 12 13 14 15 16 17 18 18 20 21 23 24 11 7 11 7 5 11 13 17 8 5 16 14 3 7 15 22 25 16 8 6 9 20 23 21 17 7 7 8 4 5 7 6 2 2 6 6 5 7 8 8 7 6 5 5 5 4 1 3 3 4 6 2 5 3 2 4 1 5 10 10 11 8 2 1 5 8 8 9 10 8 7 7 10 10 9
10 12 13 14 15 16 17 18 18 20 21 22 24 11 7 5 6 6 17 12 16 5 3 17 11 5 9 18 30 31 14 5 4 4 16 19 14 11 6 6 9 5 4 6 6 3 3 5 5 5 7 9 7 7 8 7 6 4 3 2 3 3 4 6 3 5 4 1 4 2 3 9 10 11 9 5 6 8 8 9 9 9 8 8 9 11 9 8
9 11 12 13 16 16 16 18 17 18 19 19 21 14 15 12 10 4 15 7 9 3 1 13 11 6 9 9 22 28 16 11 9 6 14 16 10 8 9 9 8 6 6 8 7 7 5 5 7 8 7 10 8 8 10 8 7 5 3 3 3 2 1 3 3 4 3 1 1 1 2 7 7 7 8 7 8 8 8 8 8 7 8 11 10 8 8 10
8 9 11 12 15 15 15 16 15 18 22 22 23 23 26 25 13 4 8 3 4 3 3 7 7 8 9 6 12 16 11 7 7 10 15 14 9 7 10 11 10 8 7 9 10 8 4 3 8 9 8 11 9 8 10 7 5 5 4 4 2 2 3 3 4 4 3 1 1 2 4 6 5 5 8 5 3 6 7 7 8 7 9 10 7 7 9 11
7 8 10 12 13 15 14 12 13 19 22 21 23 27 28 25 24 19 4 2 5 2 5 6 2 7 13 11 9 7 7 3 2 9 16 14 11 8 7 7 7 9 10 9 9 6 3 3 8 9 7 9 9 8 9 8 6 4 4 5 5 4 4 3 4 4 3 3 2 2 2 6 4 4 8 5 3 5 6 5 9 9 8 8 7 10 11 10
7 8 9 11 12 13 10 6 12 18 16 18 22 26 26 24 26 22 5 2 7 4 8 10 5 12 17 10 7 7 8 2 3 7 15 14 10 7 8 4 1 6 11 8 5 3 3 4 7 9 8 8 8 7 8 9 6 3 5 8 7 5 4 4 3 2 0 3 3 2 3 6 5 5 8 4 5 8 7 6 10 9 8 8 9 11 10 9
8 8 9 11 12 14 9 4 10 14 10 14 24 28 28 26 25 14 1 4 7 6 9 7 4 14 16 10 12 11 7 6 4 5 10 10 6 4 8 8 3 4 6 5 2 2 5 6 6 8 9 8 8 7 8 10 7 3 5 10 9 7 7 6 4 3 2 3 3 2 2 4 5 6 5 2 4 9 8 8 10 9 10 10 10 12 11 11
9 10 10 11 14 18 17 7 5 11 15 16 22 30 29 26 21 8 1 6 5 6 7 4 4 12 9 2 8 7 4 11 10 5 7 7 4 2 7 10 9 10 7 7 6 3 6 10 11 12 10 8 7 7 9 12 7 3 5 8 7 6 5 4 4 3 0 2 5 3 2 2 6 6 4 3 4 9 9 9 10 10 11 11 12 12 12 11
11 10 12 14 15 19 22 16 10 14 20 19 23 33 34 27 16 4 3 5 2 4 6 6 6 12 10 4 4 4 5 6 5 7 7 5 3 1 5 8 11 14 8 4 6 3 3 9 11 12 9 6 6 6 9 12 6 3 6 7 5 4 3 2 4 3 2 1 7 5 2 3 6 5 3 2 3 7 9 9 9 10 10 10 10 11 10 9
13 12 14 14 14 17 17 21 27 22 15 18 25 34 34 21 8 6 7 4 3 2 5 7 6 13 18 11 3 5 9 3 2 8 5 2 3 2 2 4 7 10 4 2 4 3 1 0 4 6 5 6 6 3 5 9 7 5 6 6 5 4 4 2 1 3 2 5 7 3 2 1 5 5 4 5 5 6 8 8 8 9 10 9 8 8 8 7
16 15 15 14 15 16 12 16 32 31 17 19 30 31 22 9 3 7 7 1 3 3 6 9 10 15 22 17 7 7 10 6 7 12 5 3 4 3 5 5 3 5 3 2 3 2 4 3 2 2 2 5 7 3 2 3 6 6 4 4 4 1 2 2 3 2 3 6 4 1 2 3 5 6 4 6 6 5 7 7 9 11 10 8 7 7 7 6
18 18 18 19 18 19 19 18 26 29 22 24 30 20 9 5 4 4 3 2 4 6 9 14 15 17 20 18 11 9 8 7 11 15 11 9 7 8 10 8 7 6 5 7 4 1 2 1 2 1 1 5 8 5 2 3 3 5 4 5 4 1 0 2 2 1 4 5 3 1 1 3 7 7 7 9 10 9 9 9 10 11 10 9 7 7 6 5
19 19 21 25 22 25 31 26 20 23 27 28 23 9 4 7 6 4 4 3 4 5 9 15 18 21 23 17 11 9 6 6 12 15 12 10 8 8 5 4 8 6 5 9 7 3 1 4 3 3 1 4 9 9 4 2 5 7 6 6 6 4 4 6 4 1 4 4 2 1 1 3 5 5 10 14 13 12 10 9 10 10 11 10 8 7 7 7
18 20 25 28 28 31 32 26 22 26 30 25 14 8 8 9 4 6 6 4 3 6 7 14 19 20 19 13 10 10 6 5 14 15 12 10 7 8 5 6 7 3 5 8 6 6 7 3 5 6 3 4 9 8 6 6 6 6 5 5 5 5 5 6 4 3 4 3 3 2 1 3 3 3 8 11 10 11 8 7 8 8 9 8 7 8 8 9
17 22 27 29 30 32 29 28 30 31 28 15 6 8 12 9 3 5 7 4 4 7 8 14 19 18 13 9 10 8 3 4 12 11 11 12 10 11 10 9 9 5 6 8 4 4 6 3 3 1 1 7 10 5 3 8 5 3 2 4 4 5 5 3 2 4 3 1 3 3 3 4 4 6 9 6 6 9 9 9 7 8 8 5 6 9 8 8
19 25 26 27 31 29 29 34 35 35 26 9 4 7 8 5 3 5 8 8 8 12 15 15 15 14 9 7 9 6 3 3 10 8 8 11 10 11 11 8 9 8 8 8 4 3 5 1 3 2 1 6 8 6 4 5 5 2 2 4 4 4 6 4 1 1 3 3 4 1 4 5 4 8 9 5 6 9 9 9 7 8 7 5 7 8 7 7
21 22 20 25 32 30 32 38 37 33 22 10 7 7 4 2 3 6 10 11 12 17 18 13 11 12 10 8 9 9 6 6 9 8 7 9 9 12 12 8 8 11 9 6 3 3 5 2 3 1 3 2 1 4 2 2 3 5 5 6 3 3 3 3 2 1 1 5 4 0 4 5 3 6 7 7 8 11 10 7 6 8 6 6 9 9 7 6
22 19 16 26 35 33 35 41 38 27 14 8 9 8 5 3 4 9 12 12 14 16 14 8 8 11 14 13 12 15 14 11 11 10 9 9 7 13 18 11 8 13 9 4 3 2 5 4 3 1 4 1 2 4 3 3 2 4 5 4 4 3 2 2 2 3 3 5 4 3 3 4 5 6 5 7 8 9 10 9 7 8 7 7 9 9 8 6
21 13 12 25 36 36 42 45 34 19 11 8 10 9 5 4 6 10 14 15 15 15 12 8 7 9 13 15 15 17 15 12 14 11 9 10 5 11 21 11 7 15 12 6 5 3 4 5 1 2 1 1 2 2 7 2 3 3 3 2 1 2 4 3 3 3 3 3 3 3 4 4 7 6 5 8 10 9 10 11 9 8 7 7 7 7 7 6
14 8 9 24 37 43 49 42 22 11 9 8 10 8 6 7 7 11 16 19 14 9 9 12 11 10 12 14 13 13 10 10 15 10 7 10 4 6 16 12 8 12 8 5 5 4 2 4 3 1 2 2 2 3 8 8 4 3 3 4 3 1 2 2 1 3 3 3 3 2 5 6 5 4 8 10 12 13 11 8 7 7 7 7 6 6 6 6
9 9 9 25 46 51 45 25 9 9 8 8 10 10 9 9 10 13 17 18 13 5 5 12 14 12 13 14 12 12 9 8 14 9 3 9 7 4 12 13 12 13 8 5 5 4 2 3 5 3 1 3 4 3 4 7 7 6 5 6 6 4 4 3 4 1 2 2 4 2 6 9 5 4 8 10 12 12 7 4 6 7 7 7 6 6 6 6
9 10 10 37 59 55 32 9 6 11 10 8 9 9 10 9 11 15 16 15 11 2 2 9 12 11 10 12 12 13 11 8 13 12 5 10 11 5 8 13 15 16 12 7 6 4 3 5 5 2 3 4 3 3 1 2 3 5 3 4 5 5 5 5 5 3 0 2 2 3 4 8 4 7 8 10 9 6 3 2 6 7 6 7 7 7 6 6
11 8 18 51 67 49 21 8 11 14 11 9 10 9 10 11 13 16 15 14 10 4 4 7 9 10 8 10 11 12 11 7 12 12 5 6 8 4 9 16 17 15 10 6 6 5 3 4 5 2 2 3 4 3 2 3 2 3 2 2 5 4 4 5 5 4 2 3 2 2 6 7 2 4 6 8 7 6 5 4 6 7 6 6 6 6 6 5
10 6 13 45 66 45 16 10 15 13 9 13 15 11 7 8 14 18 16 15 10 7 8 8 10 12 10 12 15 17 15 9 9 10 4 4 5 4 12 20 20 17 10 7 9 7 3 3 5 4 2 3 4 4 2 2 1 3 2 3 5 6 7 5 3 3 2 6 7 4 9 8 4 2 2 4 6 8 8 6 6 7 6 6 6 6 5 5
10 7 4 23 43 32 13 11 15 12 10 16 19 14 8 6 12 19 21 18 12 11 11 9 11 11 10 13 15 15 14 8 7 7 2 4 4 2 11 20 20 17 9 7 10 7 4 4 5 7 7 7 7 5 6 4 2 2 3 7 8 10 11 7 4 4 8 7 9 8 11 7 2 4 4 4 5 7 8 5 4 6 6 6 6 6 5 5
9 9 6 10 18 17 12 12 15 12 11 15 15 14 14 12 9 14 19 14 8 7 6 5 8 9 9 13 12 11 11 6 7 8 4 6 4 1 10 18 17 15 11 13 14 7 3 3 5 8 10 12 11 6 5 10 8 7 8 10 10 10 11 8 5 7 8 3 6 12 13 8 3 4 6 5 5 7 7 5 5 5 5 6 6 5 5 4
8 9 10 10 9 12 14 13 13 11 11 14 13 12 17 16 11 12 13 8 4 6 5 4 9 11 12 16 13 12 12 6 9 14 11 8 4 3 7 13 12 14 15 15 14 8 4 4 9 11 13 10 5 3 8 14 14 15 12 11 10 9 10 9 9 13 6 3 8 10 7 9 8 3 6 7 6 7 7 6 6 5 5 5 4 5 5 5
7 7 12 13 9 11 14 13 13 13 13 13 11 14 20 19 15 14 10 4 4 8 6 4 12 17 19 21 15 12 12 7 7 14 13 10 7 6 7 7 8 15 16 14 12 8 6 9 11 13 14 5 5 4 9 12 10 9 11 12 12 11 13 14 18 18 9 6 15 8 8 11 10 5 7 8 7 8 7 5 5 5 6 5 4 6 6 7
4 5 9 13 11 14 16 14 14 15 17 14 8 13 21 22 20 16 11 8 8 10 11 11 17 20 21 21 16 12 14 11 10 13 14 15 15 13 11 6 5 9 11 12 9 4 5 7 6 9 9 2 6 2 7 9 6 6 9 12 12 13 17 20 22 20 12 15 19 7 3 9 6 6 9 9 7 5 4 5 5 6 7 5 3 5 7 8
7 7 9 10 9 16 20 16 15 15 15 13 8 10 16 20 22 17 12 15 16 15 15 17 21 23 23 23 18 16 21 23 21 20 19 19 17 13 12 9 5 4 5 8 5 1 1 3 2 5 5 3 4 2 4 5 7 6 7 10 12 16 19 20 19 12 8 16 17 7 10 12 5 7 10 8 4 2 4 8 7 7 7 4 4 7 8 9
5 8 13 12 8 15 19 14 14 15 12 12 10 10 14 18 22 18 12 15 19 19 21 24 25 21 19 22 23 23 28 29 24 21 20 19 15 9 5 5 9 11 7 5 5 2 3 2 3 6 5 3 2 5 6 6 6 3 5 10 16 18 16 14 12 10 11 16 13 8 12 10 5 7 9 6 4 6 9 10 8 7 7 6 7 9 9 10
5 8 14 13 11 15 16 12 13 14 11 12 12 13 16 18 20 20 13 9 12 15 18 20 22 17 16 23 27 24 20 14 9 10 11 11 9 8 8 10 15 16 10 6 4 2 6 5 2 5 7 3 2 5 7 7 6 1 9 15 19 16 11 9 10 12 15 13 9 11 13 7 4 6 7 5 7 10 11 10 9 9 8 7 9 10 10 11
Wind_Direction
233 242 243 238 225 206 203 201 195 193 194 194 194 195 194 193 191 191 190 188 186 186 188 189 187 187 187 187 188 189 190 186 180 177 188 206 191 162 162 162 156 155 147 145 162 149 89 80 83 51 36 25 3 333 347 349 38 38 74 99 205 183 199 187 183 197 178 234 228 227 197 167 180 190 169 75 48 62 123 309 309 304 328 240 278 159 161 168
223 230 242 245 239 217 203 203 200 195 194 193 193 193 193 192 191 191 190 188 186 185 185 186 185 183 182 184 186 185 183 178 177 183 195 200 184 163 160 160 155 150 151 163 168 143 106 83 89 71 49 33 356 337 341 341 34 68 109 100 224 203 214 197 182 191 200 248 189 213 220 187 190 169 156 165 227 80 153 260 339 313 307 335 214 155 158 165
217 225 233 243 243 231 211 204 203 198 195 194 192 191 192 191 191 191 190 189 188 188 187 186 186 183 182 183 183 184 175 161 169 198 199 191 175 167 160 157 152 145 157 171 164 140 128 122 106 92 58 44 19 329 352 355 7 96 115 14 245 224 260 238 192 203 227 207 161 209 207 198 208 157 160 171 168 158 185 220 205 235 247 182 163 158 158 163
210 217 222 229 235 235 228 212 204 200 195 193 192 191 190 190 190 190 190 190 190 191 189 189 188 185 184 181 181 179 162 139 196 203 197 187 173 173 167 161 151 144 163 152 137 129 122 111 99 87 79 72 358 330 352 339 15 86 136 195 241 220 314 272 213 233 250 207 176 183 138 197 222 153 172 147 138 239 238 219 201 206 197 167 172 166 162 164
215 220 222 223 225 233 238 225 208 200 194 192 191 191 190 189 190 188 188 190 191 191 190 190 189 187 185 180 179 171 146 118 211 197 198 188 175 176 170 165 156 149 157 143 125 118 115 103 90 69 60 97 11 339 314 324 77 41 221 209 241 207 292 277 231 250 256 190 153 150 167 189 168 153 185 159 166 227 232 218 208 200 174 166 170 170 168 168
221 225 224 229 232 234 238 233 220 202 196 195 192 190 190 189 188 187 187 189 190 191 190 190 188 186 183 178 175 168 157 172 189 190 198 190 179 177 172 163 152 155 159 140 124 115 109 91 91 100 84 89 51 217 292 321 49 281 281 289 261 188 244 287 345 281 215 138 168 184 219 150 134 213 192 180 202 204 240 233 203 188 172 168 164 165 172 174
217 227 230 236 239 240 240 234 236 207 195 195 194 190 189 188 187 187 187 187 189 189 188 188 185 181 174 171 173 174 185 214 195 189 193 190 184 180 175 162 151 161 161 137 125 116 110 100 108 125 116 100 128 192 316 321 26 161 263 329 311 237 249 275 322 291 199 177 205 192 212 152 168 206 114 215 228 219 330 281 179 159 156 161 162 170 179 181
210 224 230 234 240 244 245 236 246 226 195 193 194 191 188 188 187 186 185 186 187 187 187 184 180 174 169 168 170 179 203 212 223 190 187 186 185 180 173 162 158 170 169 152 142 136 121 114 136 138 127 136 168 162 71 312 24 182 248 316 314 292 280 281 292 286 206 201 215 129 167 201 186 168 145 234 240 275 338 33 136 139 143 160 175 183 185 185
205 212 217 225 236 239 242 236 243 243 203 193 191 189 188 187 186 186 185 185 185 185 184 181 177 172 171 167 155 176 196 195 195 180 181 180 178 178 176 167 164 172 171 166 158 146 130 129 169 164 135 134 155 140 76 231 202 192 271 300 302 298 303 301 288 268 202 203 161 158 192 304 208 157 247 246 228 214 50 89 133 137 149 171 184 190 190 189
206 209 211 220 229 232 236 230 229 240 221 199 190 186 187 186 186 185 184 184 184 184 181 179 176 172 172 162 144 185 196 188 180 173 178 177 173 173 176 173 170 172 167 161 158 150 149 167 160 132 109 108 153 135 143 201 232 302 273 280 277 289 299 300 288 277 215 214 169 167 188 305 315 334 249 266 230 139 104 103 159 154 166 180 186 195 193 196
210 211 211 217 221 225 229 225 222 228 228 204 191 187 187 186 186 185 184 184 183 182 180 177 174 172 171 159 165 192 191 190 184 173 179 178 174 173 172 173 172 174 169 156 160 163 163 157 140 121 118 124 140 138 219 198 345 312 292 297 292 315 307 252 265 271 196 160 173 143 125 287 349 296 233 263 331 149 135 146 188 182 185 186 187 193 195 203
219 214 205 210 216 224 227 225 222 226 237 217 195 189 188 187 186 184 184 182 182 182 180 177 175 175 167 159 194 197 188 195 181 173 181 180 175 174 172 173 175 176 171 158 163 172 166 157 144 128 156 139 136 167 209 169 354 302 7 344 314 346 321 258 242 251 178 178 196 139 104 284 230 230 242 266 286 127 136 164 198 201 201 195 191 194 201 209
225 224 208 205 212 223 230 230 222 220 236 240 210 193 188 188 186 184 183 182 182 181 179 178 177 175 167 168 213 192 195 198 179 173 180 179 174 173 174 179 179 181 178 170 166 169 166 163 152 123 120 133 144 160 136 125 182 278 21 40 323 348 310 274 260 211 148 170 215 159 216 263 241 240 242 152 149 120 139 192 205 212 210 202 199 202 211 211
224 233 224 209 208 213 221 227 225 215 214 228 235 203 189 186 186 184 182 180 180 180 179 177 176 174 175 180 189 192 197 188 177 175 178 178 173 172 180 185 180 183 183 173 166 162 161 158 140 104 95 124 146 132 88 42 63 296 313 39 347 323 277 292 288 162 147 182 220 140 208 257 254 254 241 181 166 149 186 210 202 214 216 207 208 209 218 217
227 234 233 221 214 209 210 221 226 224 214 209 239 217 190 184 184 182 181 179 177 177 174 174 173 164 162 221 188 182 178 172 176 177 178 177 169 165 173 175 171 171 175 173 166 159 155 148 125 109 136 13 120 122 59 8 50 61 222 276 352 198 267 304 288 172 158 227 39 132 200 265 263 267 274 217 184 176 204 214 206 211 212 211 213 214 222 226
233 234 236 228 224 219 213 218 225 227 226 215 236 240 194 183 182 180 179 177 175 174 170 169 172 159 148 192 164 163 162 167 181 178 174 174 168 152 145 144 136 144 156 158 157 153 147 139 112 116 126 79 120 119 82 150 127 47 190 235 276 199 273 310 297 245 150 112 357 180 200 263 267 278 328 316 188 197 217 221 216 212 217 216 213 218 222 231
239 235 238 233 229 225 216 217 221 221 226 226 238 255 208 184 179 178 177 174 171 170 167 164 164 162 156 143 156 172 165 166 177 172 167 172 169 149 136 127 119 128 129 132 146 145 127 108 112 131 99 92 140 130 137 201 208 209 70 205 247 210 228 283 277 275 75 101 189 223 217 242 253 266 324 8 173 199 230 229 225 219 226 227 223 230 229 231
252 241 237 234 230 225 221 217 214 215 223 235 237 245 229 187 177 175 168 161 158 156 157 155 151 161 224 186 171 165 159 159 165 165 164 169 166 154 142 129 129 125 113 115 142 139 51 37 83 137 96 95 141 155 187 206 181 172 146 107 271 243 216 260 267 244 112 101 180 192 227 251 262 268 273 64 155 191 234 246 248 236 229 233 233 235 236 235
263 253 236 233 232 226 226 218 209 209 215 231 236 236 237 193 175 172 158 149 151 152 157 164 163 176 202 175 157 142 157 159 158 161 161 160 157 148 137 133 132 126 125 135 159 164 122 83 88 165 165 163 172 181 184 176 151 155 161 147 229 257 240 242 256 272 170 129 198 195 220 246 256 262 252 93 133 194 244 266 259 250 232 231 234 233 239 235
266 259 242 233 231 229 228 220 210 203 205 216 216 224 237 195 170 171 152 152 175 175 155 173 172 151 83 133 137 135 147 149 147 160 162 159 146 127 124 132 116 110 145 148 155 166 138 156 193 192 180 176 181 178 156 152 145 137 133 155 241 264 278 267 275 312 339 156 234 211 226 248 251 261 255 108 62 230 250 254 249 251 239 232 232 234 237 233
265 259 248 234 229 230 227 222 214 202 208 208 195 202 238 186 158 174 154 165 195 176 116 166 159 89 113 132 139 135 127 114 109 153 161 159 143 129 141 150 130 138 156 136 128 119 150 185 194 177 165 163 169 165 149 151 133 122 134 175 276 245 259 274 279 318 335 180 267 257 236 258 257 264 263 163 213 251 233 234 245 242 236 235 235 238 239 241
265 258 250 237 227 230 227 224 218 207 215 209 192 205 244 232 339 191 163 164 193 179 99 161 133 50 131 137 147 143 125 105 100 153 163 160 155 153 167 159 149 152 141 126 116 126 186 205 185 162 154 146 152 160 167 188 176 157 137 131 265 261 279 289 300 333 356 173 284 345 227 261 262 263 264 207 215 248 228 222 235 232 233 236 231 237 240 247
261 257 251 239 226 228 228 224 220 213 220 216 200 207 220 238 330 142 154 148 178 146 66 162 131 100 127 137 159 151 145 156 153 181 175 163 167 165 155 156 150 134 144 154 150 158 186 212 181 164 148 142 155 166 170 195 204 191 157 144 239 280 313 306 333 343 354 124 269 332 268 273 268 273 275 231 214 250 249 234 241 231 229 236 236 239 231 234
256 249 246 237 226 226 227 223 224 220 221 224 218 215 217 228 259 203 143 100 172 140 104 143 119 131 138 142 167 159 156 153 140 169 181 172 157 151 157 153 139 142 169 166 158 164 170 185 162 148 147 149 156 172 172 187 210 207 187 165 194 246 235 268 318 316 315 8 51 9 321 286 264 268 272 256 215 258 264 256 260 251 237 247 265 257 233 228
258 240 235 230 226 221 222 225 229 223 219 228 230 220 215 225 244 247 238 103 181 147 116 140 127 154 148 140 153 155 137 96 36 163 176 176 152 143 156 151 145 162 170 153 149 169 190 179 150 140 156 157 158 180 182 180 192 221 209 174 184 229 253 292 323 341 5 337 343 26 297 274 295 281 252 267 327 275 270 266 258 257 250 248 257 252 241 237
266 245 229 226 225 214 214 225 225 221 218 231 232 219 212 217 231 237 243 168 194 170 151 162 172 160 153 146 137 127 130 135 341 142 162 175 166 152 150 148 128 157 159 147 140 180 183 163 147 146 158 158 168 195 192 173 170 227 204 170 185 223 254 271 282 326 357 268 308 65 214 260 309 288 247 272 322 284 279 275 260 259 257 242 239 246 242 239
275 257 236 231 225 207 205 205 206 207 209 231 224 210 204 209 220 227 233 218 200 155 152 160 175 162 161 167 153 144 155 149 100 129 167 169 168 173 159 157 128 139 156 134 148 221 147 138 147 153 156 166 187 200 189 173 166 214 180 156 174 204 232 238 224 225 237 277 316 30 157 257 279 261 256 325 318 290 285 275 266 258 251 244 239 243 241 236
279 266 249 241 231 219 219 213 182 205 216 221 208 197 191 191 204 218 220 213 184 128 141 137 140 142 133 138 146 141 148 133 129 178 189 158 157 172 166 169 150 150 164 151 176 222 147 164 180 170 169 186 191 179 171 168 172 217 150 138 162 180 202 202 176 207 283 3 296 280 138 238 263 271 310 351 270 274 280 270 264 256 246 242 241 242 242 241
279 272 256 247 243 239 234 230 231 229 225 217 194 182 174 169 179 207 247 217 152 109 139 138 136 128 117 96 96 113 126 113 128 163 163 165 177 87 161 172 145 146 162 149 163 191 178 190 183 167 179 192 165 153 164 165 175 195 124 99 84 87 86 118 153 161 76 307 251 234 184 235 262 273 304 316 242 252 265 264 258 255 251 243 245 249 250 253
272 271 263 251 246 246 237 232 232 232 232 220 191 168 158 155 169 210 226 210 112 115 140 149 162 145 143 140 102 146 142 84 79 129 133 181 143 43 96 113 109 135 144 73 156 200 312 258 157 162 189 180 149 132 161 162 155 135 108 79 67 59 40 44 72 94 104 260 255 224 168 214 272 272 228 218 221 216 234 257 262 260 259 254 250 255 258 262
266 267 265 250 238 232 222 229 229 226 229 205 179 160 150 149 189 205 216 179 112 160 143 142 153 150 152 149 145 168 146 112 131 138 149 171 128 115 134 123 97 117 126 158 193 288 19 68 154 208 188 142 134 108 52 124 138 129 110 106 108 48 17 24 5 52 192 251 285 314 108 153 240 258 232 239 255 227 217 240 256 259 263 266 264 263 262 264
263 266 263 253 243 228 223 233 227 219 215 189 169 161 162 172 201 204 193 158 171 187 157 145 152 155 156 150 146 157 140 127 150 153 161 163 159 169 164 167 165 144 168 188 178 23 26 186 221 289 273 152 147 147 49 43 131 147 134 131 134 95 25 228 269 258 230 254 296 297 130 200 240 252 256 265 273 259 233 225 240 254 262 269 271 271 272 272
267 270 266 256 245 232 230 235 231 213 202 187 173 169 186 192 204 168 146 191 183 172 159 152 155 157 155 151 146 143 125 139 159 161 163 160 162 174 175 193 172 152 170 170 154 148 195 291 252 161 233 190 165 166 171 173 176 172 162 156 160 152 171 209 214 249 256 256 271 255 205 262 275 266 244 244 252 257 247 231 233 245 254 263 274 283 285 281
274 274 268 259 247 239 232 229 227 206 193 192 184 169 187 204 199 128 147 215 163 138 155 148 145 149 149 144 147 145 124 154 166 161 160 156 161 179 196 218 194 127 106 149 164 169 167 234 216 177 193 185 174 180 169 143 160 182 163 145 166 170 173 194 194 212 238 258 281 276 216 215 213 258 242 233 254 274 272 254 246 251 256 263 281 284 279 276
280 272 268 261 252 243 229 223 219 196 184 200 207 179 190 195 174 138 154 180 153 134 138 138 138 143 143 137 156 162 110 160 171 161 162 167 174 183 184 195 190 143 129 161 178 163 166 232 256 206 196 164 167 184 131 118 146 213 134 129 194 188 145 128 180 185 174 245 258 226 232 217 207 280 277 247 264 280 273 267 264 261 263 266 275 272 266 267
279 270 264 254 248 239 222 218 210 189 181 204 234 198 193 179 179 169 150 156 161 145 139 141 144 143 138 139 163 170 43 141 169 162 171 177 184 190 186 190 186 169 160 157 137 145 162 256 324 11 107 166 168 172 159 157 172 162 148 183 197 151 123 118 211 71 88 229 247 199 255 286 313 292 291 293 283 279 270 267 266 264 271 278 268 264 260 260
268 262 255 245 238 228 216 211 199 185 184 205 225 206 184 185 183 153 151 156 154 149 147 151 155 150 145 149 166 168 137 134 164 168 171 179 192 193 191 197 184 179 180 157 141 189 152 114 326 57 130 209 196 130 92 10 138 138 184 199 140 97 106 117 183 357 94 230 264 325 245 282 295 269 309 331 286 272 273 269 267 272 275 269 261 259 262 263
260 252 250 242 231 217 207 199 188 181 188 207 217 203 178 191 177 151 154 151 148 154 157 156 159 157 157 160 168 170 158 151 171 177 170 183 206 188 185 195 181 178 189 155 131 194 132 108 311 298 141 223 6 113 125 352 46 137 181 193 139 148 201 130 168 193 182 231 274 312 279 268 224 229 308 310 261 261 283 288 283 275 262 254 261 266 272 274
255 249 253 235 221 207 195 188 182 183 196 204 208 204 174 163 172 164 156 151 155 163 164 165 165 158 164 165 163 168 169 163 170 174 176 189 220 190 184 187 172 177 183 157 152 184 131 121 244 292 137 152 48 143 186 199 23 66 114 175 160 154 177 171 164 169 174 219 254 304 312 262 224 207 217 255 260 256 264 272 273 271 262 254 260 271 280 279
245 241 250 222 206 193 182 178 179 193 200 200 201 189 152 150 171 175 165 158 160 172 173 171 166 158 164 163 155 164 170 163 169 179 188 181 184 201 190 180 160 168 162 123 145 170 122 114 159 223 359 167 181 211 188 171 154 148 147 174 192 137 129 159 158 132 138 178 203 281 289 260 243 206 191 220 253 255 252 262 264 266 271 267 268 279 287 282
227 243 242 197 186 177 170 171 186 196 197 204 199 179 161 162 164 172 177 169 163 180 186 172 170 165 161 158 155 163 160 157 174 183 191 179 175 207 196 177 155 154 140 118 155 170 136 109 132 139 129 178 222 255 189 177 177 170 174 187 179 145 124 167 232 245 92 172 180 191 272 268 241 199 201 210 231 251 274 298 272 267 275 284 296 295 287 282
230 246 185 169 171 166 162 173 190 186 203 203 185 170 161 158 160 171 181 176 167 154 148 170 172 161 158 161 159 162 159 160 179 184 193 191 187 194 184 160 148 157 157 147 165 172 126 106 110 139 197 200 249 294 233 218 164 133 171 192 156 146 143 162 220 243 122 232 149 107 278 275 215 178 209 226 237 267 311 303 278 283 279 283 299 300 292 286
227 220 156 161 164 161 161 187 183 190 205 182 168 173 164 158 167 173 177 177 174 151 145 165 163 157 164 162 153 159 160 159 184 186 175 184 191 188 161 148 144 158 159 144 161 169 134 112 101 64 304 300 312 335 16 5 53 125 214 154 139 165 149 141 184 184 186 223 147 95 269 270 241 171 208 239 266 290 278 250 262 278 284 283 288 295 297 290
202 183 150 160 161 162 170 184 180 190 191 174 176 179 159 159 171 170 173 181 181 161 159 167 169 169 169 160 160 169 168 163 191 191 156 155 188 172 156 154 154 164 175 174 170 172 168 141 122 110 67 359 338 332 307 282 199 192 193 144 151 143 116 119 141 123 228 220 163 184 254 255 269 295 266 273 291 285 271 254 235 251 280 293 287 293 303 302
180 156 140 161 162 167 182 180 176 178 176 178 180 173 152 159 179 175 173 177 180 169 163 169 172 163 155 160 164 172 174 164 173 182 127 133 160 158 162 164 166 173 175 149 145 152 163 155 150 147 149 173 193 215 222 195 167 196 172 172 178 155 148 160 132 153 231 218 162 198 242 243 288 325 325 328 309 283 276 275 245 241 260 273 279 291 302 301
180 156 147 158 162 172 184 184 179 171 171 173 173 175 166 155 175 185 175 172 176 161 136 132 146 131 143 161 156 167 185 169 146 157 141 147 159 215 177 172 173 172 148 131 141 143 118 154 186 180 185 192 190 187 142 124 144 195 188 177 182 173 168 158 133 196 219 182 186 222 236 240 277 320 309 307 287 267 269 281 282 268 257 260 269 279 283 278
183 166 161 155 155 171 180 189 186 168 168 171 167 173 170 159 163 179 178 179 172 144 100 100 146 146 158 165 158 172 181 155 147 160 157 158 137 65 169 176 174 166 145 141 158 145 106 191 201 198 211 207 166 131 131 139 174 194 178 170 177 172 170 167 197 216 180 117 238 228 209 234 242 246 269 271 260 260 261 256 265 277 274 274 286 295 292 282
188 162 162 154 143 167 176 182 181 166 166 176 172 166 169 166 164 167 170 166 153 151 126 131 170 172 171 169 166 170 166 148 164 168 158 158 143 116 160 194 194 176 159 159 173 155 154 204 201 195 211 207 77 119 156 157 180 178 164 178 177 170 178 190 215 220 177 198 243 210 164 226 231 205 237 247 239 248 252 247 261 284 291 305 324 315 301 287
163 124 157 155 145 163 165 160 168 169 171 180 184 174 171 166 164 168 161 145 160 175 164 164 180 180 175 174 170 165 167 170 181 182 172 167 162 154 160 184 222 198 171 167 180 166 167 199 193 181 190 81 48 125 161 153 152 145 170 185 174 178 194 202 218 221 203 228 243 228 218 255 233 206 236 244 237 239 255 271 278 280 284 300 308 285 274 266
153 137 152 147 141 162 164 160 164 170 176 183 185 180 175 167 165 167 163 162 171 177 175 178 182 179 177 178 176 178 185 185 185 185 178 167 167 167 168 172 170 156 154 165 177 344 164 180 91 121 138 29 23 79 97 121 142 156 187 191 184 197 206 213 223 219 212 242 250 272 288 273 227 208 237 252 271 274 261 263 260 252 254 252 245 251 250 251
137 137 150 147 148 165 169 167 163 165 178 188 181 172 173 173 167 163 170 184 180 176 183 186 180 176 178 181 186 193 195 193 186 179 172 165 163 159 159 163 149 142 144 157 157 113 117 139 53 99 142 259 321 99 89 76 91 124 216 209 202 205 208 216 223 205 207 233 240 255 267 256 198 208 230 244 272 269 261 263 262 250 230 210 227 245 249 253
122 140 155 154 155 166 170 167 166 171 176 180 178 171 172 176 172 165 167 196 199 191 191 182 169 166 175 189 200 201 191 181 160 144 148 148 135 117 115 133 145 150 151 146 146 126 124 130 109 130 162 240 332 118 120 88 74 235 236 216 204 203 204 214 230 221 217 222 220 230 241 227 170 195 211 222 238 242 246 248 250 252 235 217 232 243 247 251
Height
720 722 723 724 726 729 732 735 738 741 744 747 750 753 756 760 763 765 768 771 774 776 780 783 785 787 789 791 794 796 798 799 800 801 802 803 804 806 806 807 809 809 811 813 813 813 814 816 818 822 824 827 833 832 829 830 831 831 839 847 847 850 846 839 840 840 836 832 832 834 833 833 835 838 837 838 840 841 844 844 843 843 842 842 841 840 841 845
720 721 723 724 725 727 730 734 737 739 742 745 748 751 755 758 761 764 767 770 773 776 779 782 785 786 788 791 794 796 798 800 801 802 802 803 805 805 807 807 809 810 811 813 813 812 815 818 820 824 828 833 838 836 833 832 832 837 846 849 846 845 840 835 834 834 835 831 830 833 834 834 833 835 836 837 842 844 844 844 844 844 842 842 842 842 842 844
719 721 723 724 725 726 728 732 735 737 740 744 747 750 753 756 760 763 766 769 772 775 779 781 784 786 789 791 793 796 798 801 803 802 802 804 805 805 806 807 808 809 811 812 813 812 815 818 820 826 832 837 841 839 836 834 835 841 846 848 844 841 838 835 834 833 833 831 831 832 835 835 833 834 835 836 842 845 843 841 842 842 841 842 843 842 842 844
718 720 723 724 724 726 726 729 733 736 739 743 745 748 752 755 758 762 765 768 771 775 778 781 784 786 789 791 794 797 798 804 803 799 801 803 804 805 806 807 808 809 812 812 813 814 815 818 821 827 834 839 844 843 839 836 838 842 844 844 841 842 840 834 834 833 832 834 833 833 836 836 833 834 835 836 842 845 841 836 835 834 836 841 843 843 842 843
717 719 721 722 723 725 726 727 730 734 737 740 744 747 750 753 757 760 763 767 770 774 777 780 783 786 789 791 795 795 800 810 802 795 800 802 803 805 806 807 807 809 812 813 814 815 816 819 823 830 836 841 844 844 843 839 838 841 841 840 838 841 841 834 835 836 834 835 834 835 834 832 833 834 834 834 835 836 832 829 829 829 832 836 838 841 842 842
717 718 720 721 721 723 725 727 729 732 735 738 742 745 749 752 756 759 763 766 770 773 776 780 782 786 789 791 795 794 799 807 797 792 798 799 802 804 805 806 807 810 812 813 814 816 818 821 826 834 839 842 846 846 847 842 839 842 840 838 839 842 841 835 835 836 836 835 833 835 832 830 833 832 834 833 828 826 826 826 827 829 832 833 835 838 840 841
715 717 719 720 720 722 725 727 728 730 733 737 741 744 748 751 755 758 762 766 769 772 775 779 782 786 789 791 794 794 795 796 792 792 796 798 801 803 804 806 807 809 812 813 815 817 819 823 829 836 840 844 849 848 848 844 840 843 842 839 839 841 840 836 836 836 835 833 832 833 832 832 831 831 836 833 824 825 827 827 826 828 832 834 836 837 838 838
715 716 718 719 720 721 723 725 727 729 732 736 740 743 746 750 754 757 761 765 769 772 775 778 782 785 788 790 792 796 796 792 791 793 794 797 800 802 804 806 807 809 812 813 815 817 820 825 829 834 838 842 846 846 847 846 842 842 842 841 840 838 836 835 836 834 833 833 833 834 832 833 833 834 835 829 824 826 828 828 828 829 832 835 836 837 837 838
714 715 717 719 720 721 722 724 726 728 731 734 737 741 745 749 753 756 760 764 768 772 775 778 782 785 788 789 791 797 795 790 791 792 794 796 798 800 802 804 806 809 811 812 813 815 819 826 829 829 834 841 844 845 846 846 844 842 842 841 840 837 834 835 834 832 832 832 833 833 833 834 835 836 831 823 824 827 829 830 829 830 832 834 835 836 837 838
712 714 716 718 719 720 722 723 725 727 729 733 735 739 744 747 751 755 758 762 767 771 774 779 782 785 787 787 792 797 792 789 792 792 794 796 797 800 801 803 805 807 810 812 812 813 817 822 825 826 831 839 844 846 847 846 843 842 842 840 838 836 833 834 832 831 832 831 831 832 835 835 834 836 828 821 825 828 829 832 832 831 831 832 834 835 836 837
711 713 714 717 718 720 722 723 725 726 729 733 736 738 742 746 750 754 757 761 765 770 774 778 781 784 785 787 792 795 789 789 792 792 794 796 797 799 800 802 805 807 809 811 813 813 814 819 823 826 831 837 842 846 847 844 842 840 840 837 834 833 832 833 832 832 830 830 832 831 833 835 835 835 826 822 828 829 827 831 834 832 831 832 832 834 836 836
711 712 713 716 718 720 722 724 725 727 730 734 736 737 741 745 748 752 756 760 764 769 773 777 781 783 785 788 791 790 789 790 791 792 794 796 798 799 801 803 805 808 809 810 813 813 814 818 821 826 830 834 841 845 843 843 842 839 839 838 835 833 831 830 830 831 829 830 830 829 835 837 835 830 822 824 830 830 829 830 833 833 832 832 833 834 835 836
710 711 712 714 717 719 721 723 726 729 731 734 736 736 738 742 747 751 755 759 763 768 773 777 781 783 787 791 789 788 789 790 791 793 795 796 799 800 802 804 806 808 808 809 812 813 815 818 820 825 828 833 839 840 838 840 842 840 841 842 841 840 834 830 831 831 828 830 829 830 840 839 830 824 822 828 831 829 829 830 834 834 833 833 833 834 834 835
709 710 711 713 716 719 721 722 724 728 731 732 734 735 737 740 745 749 754 758 763 768 773 777 781 783 787 789 788 788 789 789 791 792 794 796 799 802 804 805 806 808 809 810 812 813 816 818 821 825 830 833 835 836 838 841 842 842 844 844 848 850 839 830 832 830 827 832 830 830 841 836 824 821 823 829 830 828 827 828 834 834 833 834 833 834 834 834
708 709 711 713 716 718 720 721 722 725 728 730 732 734 735 737 742 748 753 757 762 767 772 776 779 782 788 790 787 787 788 789 791 791 793 795 798 801 804 805 806 808 810 812 812 815 817 818 821 827 832 833 834 837 841 843 843 845 849 849 853 854 841 829 831 831 826 831 830 831 840 835 823 820 823 829 831 828 826 827 832 833 832 833 832 833 833 832
707 709 710 713 715 717 719 721 722 724 727 729 732 734 735 737 741 747 752 757 762 767 771 776 779 781 787 789 786 787 788 789 790 791 793 795 797 800 803 805 807 809 811 812 814 816 818 819 823 827 832 834 837 840 844 848 847 848 852 852 852 853 847 834 831 833 828 829 831 831 835 831 823 821 824 830 831 830 827 826 830 832 832 832 832 832 832 832
706 708 710 712 714 716 718 720 722 724 727 729 732 734 736 738 741 747 753 757 762 766 769 773 777 782 786 786 785 784 785 786 789 791 794 797 798 800 803 805 809 810 811 814 816 818 819 822 826 829 831 835 838 839 849 857 854 853 855 852 852 852 851 841 831 832 831 829 831 832 833 827 819 820 824 828 831 832 829 826 828 831 832 832 831 831 831 831
705 707 709 712 713 715 718 720 722 725 727 729 732 734 737 739 742 748 752 756 762 767 772 774 779 784 782 779 779 777 779 783 787 790 793 796 799 800 802 805 808 809 812 817 819 820 822 825 828 831 835 839 839 840 850 857 853 854 854 851 852 849 849 845 833 832 832 829 831 833 835 830 821 819 821 826 831 831 829 829 829 829 830 831 831 831 830 830
704 706 708 711 713 715 717 719 722 725 727 730 733 736 741 742 743 745 746 749 755 759 762 762 766 768 763 763 770 773 777 781 785 790 793 795 798 800 802 804 807 808 814 820 822 822 824 828 833 835 838 841 839 837 842 846 844 847 848 848 850 847 846 843 835 835 835 832 832 834 833 829 823 819 819 824 830 830 829 830 828 827 829 829 830 830 829 829
703 705 707 709 711 713 716 718 721 724 728 730 733 738 741 736 736 741 743 744 744 742 743 745 749 755 754 758 767 772 777 782 785 789 792 794 796 799 803 806 809 812 815 820 823 822 823 831 835 834 835 836 835 834 836 839 839 842 846 850 851 851 847 838 834 837 837 834 832 833 832 828 825 820 819 825 828 828 828 828 826 825 826 826 827 827 826 825
702 703 705 707 710 712 715 717 720 723 727 729 731 736 733 723 725 732 736 743 743 738 742 745 748 755 756 758 763 767 775 784 787 788 792 794 794 798 805 807 811 818 818 818 822 822 825 833 834 830 829 832 834 834 835 837 839 842 847 851 853 854 849 839 837 838 838 836 833 834 835 830 826 822 821 825 825 822 821 822 822 821 822 824 823 823 822 821
700 701 703 705 708 711 714 716 719 722 726 728 729 730 725 720 723 722 723 736 743 741 744 746 750 756 757 758 761 763 771 783 789 790 791 792 793 797 805 807 812 820 821 820 823 828 832 834 832 828 827 830 833 834 835 837 838 842 848 852 854 854 849 840 839 840 840 837 834 837 836 829 825 822 820 824 822 817 816 816 816 816 818 819 818 817 818 819
699 699 702 704 706 710 713 715 719 722 724 726 725 723 722 723 725 723 724 734 742 745 746 746 751 758 761 762 761 761 767 776 784 790 790 790 793 795 801 807 813 820 822 821 824 830 834 831 827 826 826 829 834 835 836 838 839 842 847 852 854 853 850 844 841 842 842 841 839 838 836 828 823 821 817 818 820 815 813 814 814 816 815 812 813 813 814 815
697 699 701 703 706 709 712 715 718 720 721 723 721 718 721 725 727 729 732 738 742 744 746 747 751 756 761 762 761 762 767 771 777 785 788 788 792 795 798 803 811 819 821 819 822 826 828 825 824 825 826 830 835 837 837 841 843 844 846 850 852 852 851 848 845 842 840 842 841 837 837 829 819 820 815 811 819 818 813 814 813 813 813 811 812 811 810 809
695 699 700 703 706 708 712 715 715 716 719 719 718 718 723 727 730 734 737 738 741 745 748 749 750 753 756 759 762 763 767 773 778 781 784 786 788 793 798 800 806 816 819 819 823 825 825 824 823 826 829 830 835 837 837 840 845 847 846 846 847 849 850 850 847 843 841 842 842 842 842 832 820 820 816 810 817 817 812 814 811 809 810 811 811 808 806 806
694 697 700 703 705 708 712 713 711 715 718 716 715 719 723 726 732 738 739 738 739 743 745 744 746 748 750 757 762 764 770 778 781 780 782 785 784 787 797 802 804 812 816 818 823 824 824 823 823 827 830 832 836 838 836 836 845 849 843 841 844 847 850 851 847 846 846 844 845 848 846 838 826 816 811 814 817 813 811 812 809 808 808 807 806 802 802 802
692 695 699 702 704 708 710 708 709 713 714 712 714 718 721 726 734 738 741 739 732 733 738 741 743 742 746 754 756 761 769 774 781 785 782 784 785 784 794 801 804 810 811 815 823 822 821 825 827 827 830 834 836 837 833 833 842 845 837 835 839 844 848 849 848 848 848 846 847 849 847 845 836 816 811 820 816 808 808 807 805 804 804 803 801 798 797 797
691 693 697 700 703 705 705 706 709 709 709 710 713 717 719 726 734 739 741 732 720 721 730 738 741 739 747 756 755 760 764 763 775 786 783 784 787 786 793 797 799 806 806 810 822 820 816 821 824 825 829 833 830 829 829 831 838 839 834 834 837 841 845 846 848 848 850 852 848 845 847 849 838 819 817 822 814 807 804 801 798 797 796 796 795 794 793 792
689 692 694 698 701 702 704 708 708 706 708 711 714 715 717 727 735 738 736 722 712 717 722 732 741 742 749 758 760 764 765 764 771 780 784 786 786 787 793 794 796 803 806 807 814 817 816 817 817 820 826 828 825 825 827 828 834 837 836 837 840 844 847 848 849 846 851 857 849 841 845 847 834 816 815 818 812 808 803 797 796 793 791 792 791 791 790 790
688 690 692 696 698 700 705 707 703 705 710 712 715 716 717 726 732 729 725 712 710 719 721 729 739 741 746 757 765 766 765 770 774 778 786 786 786 788 790 793 797 803 809 809 811 815 817 817 816 820 822 822 822 826 828 828 831 835 834 836 841 845 848 851 850 847 854 856 846 841 845 849 840 819 810 810 805 801 797 793 793 790 787 788 789 789 789 790
686 688 691 694 696 699 703 700 698 704 711 710 714 717 717 725 729 720 712 706 710 720 722 728 736 738 741 750 762 765 765 773 776 780 786 785 787 789 788 794 799 806 815 815 814 817 818 819 820 819 818 818 821 827 830 829 829 831 831 834 841 847 848 851 851 854 858 854 849 854 855 853 846 820 803 802 801 800 799 793 789 785 783 786 787 788 789 791
684 686 688 691 693 697 697 694 697 705 710 711 712 714 714 719 722 715 710 710 712 715 716 721 729 735 738 745 756 762 766 773 775 776 780 781 785 785 783 786 790 802 817 817 817 821 819 820 820 818 818 817 818 827 834 834 831 831 832 836 846 855 858 858 858 861 861 854 855 863 859 849 837 816 802 800 798 798 798 796 790 785 784 784 785 786 788 791
682 683 684 686 690 692 690 694 702 704 708 712 709 711 713 709 706 705 713 718 711 707 710 712 720 727 732 743 755 760 764 771 772 773 776 778 782 784 782 782 781 788 801 809 817 822 822 822 819 817 818 814 814 823 830 832 832 830 830 833 843 855 864 866 865 865 861 853 854 861 857 843 827 809 799 795 791 788 790 793 792 789 788 786 787 788 789 789
680 681 680 682 684 686 689 697 702 701 707 711 703 706 709 701 697 700 711 721 713 707 711 711 719 729 732 743 754 755 761 771 770 769 775 780 784 786 783 782 782 783 792 804 811 815 819 819 814 813 813 810 811 815 817 822 828 827 822 824 832 839 847 856 857 855 853 849 853 860 850 831 813 802 795 793 790 787 787 791 794 793 792 792 792 790 787 785
676 677 677 679 679 681 689 696 698 699 706 706 698 698 695 688 694 699 705 718 717 712 716 715 719 730 737 746 752 749 755 768 769 769 774 776 777 779 776 776 780 782 788 800 805 808 812 811 809 813 813 809 810 812 812 818 828 830 823 822 828 825 827 844 853 851 850 847 848 851 839 821 808 796 792 794 794 789 786 787 790 789 790 793 790 784 783 782
673 673 674 674 673 677 686 690 694 698 702 703 696 690 684 681 689 695 698 708 711 711 718 720 720 729 742 750 752 750 751 760 767 770 773 773 773 773 770 770 775 777 778 786 795 802 808 810 812 815 814 810 809 810 809 812 820 827 828 825 825 821 819 835 854 859 858 849 842 839 829 817 811 797 785 787 787 782 780 781 782 782 785 788 783 777 778 779
669 669 669 666 666 674 681 685 692 695 699 702 694 684 685 686 688 691 693 697 702 703 707 713 714 720 737 748 750 750 750 758 766 767 770 773 769 768 768 767 769 771 770 773 783 791 799 811 816 812 810 813 815 812 810 811 814 819 825 820 819 825 824 828 842 852 855 848 839 837 830 820 816 804 786 783 782 775 773 776 778 777 778 779 775 772 775 778
666 667 662 655 660 670 676 682 688 691 696 698 691 685 690 691 687 687 688 690 696 700 701 705 706 708 721 732 738 742 743 752 761 761 765 768 759 754 759 761 764 767 766 766 776 783 789 804 816 813 811 815 816 813 813 816 815 813 816 814 814 826 831 830 835 842 848 847 836 833 835 827 817 805 788 781 781 775 772 772 773 774 773 773 771 770 773 777
665 664 650 641 653 664 669 677 684 688 691 688 685 685 688 689 687 684 684 686 691 695 696 699 701 705 712 716 724 734 736 741 751 753 754 758 753 746 746 751 759 765 765 763 770 778 782 795 812 815 813 813 812 811 812 815 817 815 814 814 813 817 822 825 830 833 837 842 836 832 831 818 808 801 788 780 779 776 773 771 770 771 772 772 772 770 771 775
661 657 637 630 646 656 663 675 680 681 682 677 677 680 681 684 686 684 681 680 684 689 690 691 695 702 709 713 720 730 733 737 746 746 744 746 749 748 744 746 756 764 767 766 768 776 780 788 803 814 815 814 811 810 808 808 813 814 813 816 816 815 818 821 826 828 828 832 835 836 825 805 796 796 784 777 775 769 769 772 772 773 772 772 774 775 775 776
655 647 625 622 638 648 658 669 670 670 674 674 673 674 675 677 681 683 681 677 678 681 682 685 689 694 702 711 718 725 731 738 742 742 742 742 743 746 741 741 751 760 765 768 768 773 779 786 801 812 814 811 808 810 811 806 805 807 808 811 812 814 818 822 829 831 829 828 831 835 825 798 785 788 783 775 771 767 771 775 774 774 773 772 775 778 779 778
645 632 615 616 628 638 650 658 660 663 669 670 667 667 669 672 676 680 679 677 679 681 680 682 686 691 698 703 711 717 723 732 736 735 736 736 734 737 737 738 747 751 756 763 766 772 780 788 802 812 813 811 811 818 824 818 807 805 808 808 808 811 813 818 827 829 828 832 834 839 831 796 773 779 781 776 773 775 783 784 777 775 775 775 776 778 779 779
629 618 610 612 619 630 642 650 654 658 660 661 662 662 663 667 673 677 677 677 679 680 680 682 685 690 696 700 709 716 719 727 732 729 731 735 734 734 736 739 745 750 755 759 764 770 775 782 797 811 813 810 809 814 822 822 814 807 809 810 809 810 810 812 820 821 822 825 827 835 827 792 773 778 779 780 782 782 787 788 782 776 773 775 777 776 777 777
612 608 607 607 612 622 630 632 638 651 657 656 659 661 661 664 667 669 673 674 674 674 677 680 681 683 688 695 701 706 709 719 729 729 730 734 735 736 737 737 740 745 749 749 752 759 766 775 790 805 814 815 814 813 811 813 814 809 809 811 808 808 813 815 818 821 819 814 815 824 814 786 777 781 779 783 787 781 780 784 783 777 772 772 774 774 775 775
598 597 600 604 608 612 616 617 625 645 655 653 656 661 662 664 663 660 662 665 666 666 670 675 675 677 685 692 696 701 702 706 719 731 731 731 736 740 739 737 737 739 742 743 746 752 761 772 778 786 801 808 807 802 792 794 808 810 807 808 803 802 807 807 812 818 813 807 809 809 796 778 775 777 776 779 782 777 774 776 780 779 775 773 772 772 773 774
578 579 586 596 604 610 614 615 619 635 647 647 652 659 657 659 661 658 657 661 663 663 667 671 674 680 689 694 699 706 706 704 711 724 729 730 733 738 737 735 736 737 740 743 747 752 761 769 769 769 775 776 773 774 771 779 795 799 799 803 802 802 801 801 809 809 800 804 805 790 780 779 779 776 774 774 774 773 771 771 773 773 772 773 773 773 774 775
563 565 570 579 594 606 612 615 618 627 638 639 641 648 650 652 657 658 658 660 661 662 668 672 673 679 688 693 698 704 706 708 710 714 722 726 729 736 738 736 736 738 739 742 746 750 758 766 765 763 763 761 761 767 770 775 782 784 792 801 801 803 803 802 802 793 788 801 800 781 777 784 781 776 772 770 769 769 768 769 771 770 770 772 774 773 773 772
553 557 560 563 578 595 604 612 619 626 634 636 633 636 641 645 649 652 655 660 662 660 666 675 675 675 680 682 688 697 705 711 713 712 717 721 726 734 740 741 740 736 736 740 743 743 750 758 758 759 763 765 768 772 771 773 777 782 790 796 798 801 802 798 792 782 784 792 784 774 778 781 778 775 770 767 766 765 766 770 774 773 772 772 773 771 768 767
547 553 560 561 570 586 599 609 619 625 630 634 633 631 632 637 641 642 645 655 662 659 660 669 672 671 676 678 680 691 699 702 707 708 707 710 715 722 732 739 740 738 736 738 742 742 745 752 757 760 765 771 778 781 777 775 779 784 789 792 796 798 795 789 781 778 784 782 772 774 783 782 780 778 770 766 768 771 775 776 776 773 770 770 771 769 767 766
537 543 554 561 570 582 592 604 617 624 626 630 633 632 629 632 635 637 639 644 651 654 654 659 663 664 670 673 674 680 681 675 680 688 690 697 705 709 716 721 728 738 741 740 744 745 745 755 762 764 769 777 783 785 783 781 779 781 787 792 794 793 789 785 781 784 790 784 777 784 787 781 779 776 770 769 772 776 775 772 771 771 771 771 771 770 768 766
533 537 545 556 572 583 588 598 609 618 623 626 627 627 628 630 630 632 637 637 637 641 641 643 651 660 667 670 668 666 662 658 663 672 679 688 695 699 706 711 719 733 740 742 744 743 747 759 765 765 771 779 784 787 788 786 783 784 788 789 787 785 784 784 783 785 785 780 783 790 783 773 772 770 768 770 772 771 767 765 767 768 770 772 769 766 764 761
532 538 541 548 566 581 587 596 606 611 615 617 618 619 621 625 626 627 635 640 636 634 633 634 645 657 666 669 662 654 657 664 671 677 682 688 691 695 702 710 716 724 732 740 744 744 746 754 761 764 768 778 792 793 784 783 789 787 775 767 772 778 780 781 781 778 776 776 781 780 768 761 764 765 767 770 769 767 763 762 762 762 765 768 765 761 759 756